GAINDESAT-1A

Last updated on Mon Sep 16 2024 00:02:03 GMT+0000 (Coordinated Universal Time)

1 60529U 24149BP 24258.93398007 .00033633 00000+0 15234-2 0 9996 2 60529 97.4440 334.1234 0009138 49.2437 310.9590 15.20756690 4420
UTC large
Height (km)
Speed (km/s)
/
Latitude / Longitude
Inclination (degrees)
Orbital Period (minutes)
Azimuth
Elevation
Range (km)
Doppler Factor

Next 0 passes for location: London (51.5072 / 0.1276)

Sorry there are no passes over London.